This is the latest recevied weather packets stored in our database for station/object APPOWX. If no packets are shown the sender has not sent any weather packets the latest 10 day(s).
| Time | Temp. | Humidity | Pressure | Rain* | Wind** | Luminosity | Snow |
|---|---|---|---|---|---|---|---|
| 1778261596 | 18.33° C | 39% | 1018.2 hPa | 0 mm | - | - | - |
| 1778261537 | 18.89° C | 39% | 1018.3 hPa | 0 mm | - | - | - |
| 1778261476 | 18.89° C | 41% | 1018.2 hPa | 0 mm | - | - | - |
| 1778261416 | 18.33° C | 37% | 1018.3 hPa | 0 mm | - | - | - |
| 1778261356 | 18.33° C | 36% | 1018.3 hPa | 0 mm | - | - | - |
| 1778261296 | 18.33° C | 35% | 1018.3 hPa | 0 mm | - | - | - |
| 1778261236 | 18.33° C | 38% | 1018.3 hPa | 0 mm | - | - | - |
| 1778261176 | 18.33° C | 37% | 1018.2 hPa | 0 mm | - | - | - |
| 1778261116 | 18.33° C | 41% | 1018.2 hPa | 0 mm | - | - | - |
| 1778261055 | 18.33° C | 40% | 1018.4 hPa | 0 mm | - | - | - |
| 1778260996 | 18.89° C | 38% | 1018.3 hPa | 0 mm | - | - | - |
| 1778260936 | 18.89° C | 35% | 1018.4 hPa | 0 mm | - | - | - |
| 1778260876 | 18.89° C | 42% | 1018.3 hPa | 0 mm | - | - | - |
| 1778260815 | 18.89° C | 39% | 1018.3 hPa | 0 mm | - | - | - |
| 1778260756 | 18.89° C | 40% | 1018.3 hPa | 0 mm | - | - | - |
| 1778260696 | 18.89° C | 37% | 1018.4 hPa | 0 mm | - | - | - |
| 1778260635 | 18.89° C | 38% | 1018.4 hPa | 0 mm | - | - | - |
| 1778260576 | 18.89° C | 35% | 1018.4 hPa | 0 mm | - | - | - |
| 1778260516 | 18.89° C | 34% | 1018.2 hPa | 0 mm | - | - | - |
| 1778260455 | 18.89° C | 39% | 1018.5 hPa | 0 mm | - | - | - |
| 1778260395 | 18.89° C | 39% | 1018.4 hPa | 0 mm | - | - | - |
| 1778260336 | 18.89° C | 37% | 1018.6 hPa | 0 mm | - | - | - |
| 1778260275 | 18.89° C | 37% | 1018.3 hPa | 0 mm | - | - | - |
| 1778260215 | 18.33° C | 38% | 1018.5 hPa | 0 mm | - | - | - |
| 1778260156 | 18.33° C | 39% | 1018.5 hPa | 0 mm | - | - | - |
* Rain latest hour (hover to see other rain measurements)
** Current wind speed in m/s (hover to see current wind gust speed)